| time (UTC) | temp C | wind direction | speed KPH | gust KPH | rain 1hr cm | rain 24hr cm | rain mn cm | humidity % | barometer mb |
| 20260502190003 | 13 | 259 | 14.5 | 22.5 | 0.00 | 0.00 | 0.00 | 49 | 1007.6 |
| 20260502185503 | 14 | 260 | 14.5 | 22.5 | 0.00 | 0.00 | 0.00 | 49 | 1007.7 |
| 20260502185003 | 13 | 261 | 14.5 | 22.5 | 0.00 | 0.00 | 0.00 | 47 | 1007.8 |
| 20260502184716 | 13 | 259 | 14.5 | 22.5 | 0.00 | 0.00 | 0.00 | 47 | 1007.8 |
| 20260502184003 | 14 | 242 | 16.1 | 24.1 | 0.00 | 0.00 | 0.00 | 48 | 1007.9 |
| 20260502183503 | 14 | 246 | 14.5 | 22.5 | 0.00 | 0.00 | 0.00 | 47 | 1007.9 |
| 20260502183219 | 13 | 252 | 14.5 | 22.5 | 0.00 | 0.00 | 0.00 | 46 | 1008.0 |
| 20260502182503 | 14 | 248 | 16.1 | 22.5 | 0.00 | 0.00 | 0.00 | 46 | 1008.0 |
| 20260502182003 | 13 | 239 | 12.9 | 24.1 | 0.00 | 0.00 | 0.00 | 47 | 1008.0 |
| 20260502181503 | 13 | 243 | 11.3 | 24.1 | 0.00 | 0.00 | 0.00 | 48 | 1008.1 |
| 20260502181003 | 14 | 250 | 12.9 | 22.5 | 0.00 | 0.00 | 0.00 | 46 | 1008.1 |
| 20260502180503 | 13 | 256 | 12.9 | 24.1 | 0.00 | 0.00 | 0.00 | 45 | 1008.0 |
| 20260502170503 | 13 | 213 | 8.0 | 12.9 | 0.00 | 0.00 | 0.00 | 45 | 1008.8 |
| 20260502170216 | 13 | 225 | 8.0 | 14.5 | 0.00 | 0.00 | 0.00 | 49 | 1008.9 |
| 20260502164003 | 12 | 257 | 11.3 | 19.3 | 0.00 | 0.00 | 0.00 | 49 | 1009.1 |
| 20260502163503 | 12 | 247 | 12.9 | 19.3 | 0.00 | 0.00 | 0.00 | 52 | 1009.2 |
| 20260502163218 | 13 | 251 | 12.9 | 20.9 | 0.00 | 0.00 | 0.00 | 48 | 1009.2 |
| 20260502162503 | 13 | 273 | 12.9 | 20.9 | 0.00 | 0.00 | 0.00 | 47 | 1009.4 |
| 20260502162003 | 13 | 271 | 14.5 | 25.7 | 0.00 | 0.00 | 0.00 | 46 | 1009.3 |
| 20260502161503 | 13 | 247 | 14.5 | 25.7 | 0.00 | 0.00 | 0.00 | 47 | 1009.3 |
| 20260502161003 | 12 | 225 | 9.7 | 20.9 | 0.00 | 0.00 | 0.00 | 48 | 1009.3 |
| 20260502160503 | 13 | 201 | 6.4 | 19.3 | 0.00 | 0.00 | 0.00 | 47 | 1009.4 |
| 20260502152216 | 11 | 198 | 12.9 | 20.9 | 0.00 | 0.00 | 0.00 | 53 | 1010.0 |
| 20260502151503 | 11 | 203 | 14.5 | 24.1 | 0.00 | 0.00 | 0.00 | 52 | 1010.1 |
| 20260502151003 | 10 | 205 | 14.5 | 24.1 | 0.00 | 0.00 | 0.00 | 51 | 1010.1 |
| 20260502150503 | 10 | 199 | 12.9 | 22.5 | 0.00 | 0.00 | 0.00 | 53 | 1010.2 |
| 20260502150215 | 10 | 195 | 12.9 | 22.5 | 0.00 | 0.00 | 0.00 | 55 | 1010.2 |
| 20260502130718 | 5 | 360 | 4.8 | 8.0 | 0.00 | 0.00 | 0.00 | 65 | 1012.1 |
| 20260502123503 | 3 | 360 | 4.8 | 6.4 | 0.00 | 0.00 | 0.00 | 64 | 1012.3 |
| 20260502123217 | 3 | 360 | 4.8 | 6.4 | 0.00 | 0.00 | 0.00 | 63 | 1012.4 |
| 20260502122503 | 3 | 360 | 4.8 | 6.4 | 0.00 | 0.00 | 0.00 | 64 | 1012.4 |
| 20260502122218 | 3 | 360 | 4.8 | 6.4 | 0.00 | 0.00 | 0.00 | 65 | 1012.5 |
| 20260502121716 | 3 | 360 | 3.2 | 6.4 | 0.00 | 0.00 | 0.00 | 63 | 1012.6 |
| 20260502121003 | 3 | 360 | 4.8 | 6.4 | 0.00 | 0.00 | 0.00 | 63 | 1012.7 |
| 20260502120503 | 3 | 360 | 4.8 | 6.4 | 0.00 | 0.00 | 0.00 | 64 | 1012.7 |
| 20260502115503 | 3 | 360 | 4.8 | 8.0 | 0.00 | 0.00 | 0.00 | 64 | 1012.8 |
| 20260502115003 | 3 | 360 | 3.2 | 6.4 | 0.00 | 0.00 | 0.00 | 66 | 1012.8 |
| 20260502114717 | 3 | 360 | 3.2 | 6.4 | 0.00 | 0.00 | 0.00 | 66 | 1012.8 |
| 20260502114003 | 2 | 360 | 3.2 | 6.4 | 0.00 | 0.00 | 0.00 | 67 | 1013.0 |
| 20260502113503 | 2 | 360 | 3.2 | 4.8 | 0.00 | 0.00 | 0.00 | 66 | 1013.0 |
| 20260502113003 | 2 | 360 | 3.2 | 4.8 | 0.00 | 0.00 | 0.00 | 66 | 1013.1 |
| 20260502112503 | 2 | 360 | 3.2 | 4.8 | 0.00 | 0.00 | 0.00 | 67 | 1013.1 |
| 20260502112218 | 2 | 360 | 3.2 | 4.8 | 0.00 | 0.00 | 0.00 | 68 | 1013.2 |
| 20260502111719 | 2 | 360 | 3.2 | 4.8 | 0.00 | 0.00 | 0.00 | 69 | 1013.2 |
| 20260502111003 | 1 | 360 | 3.2 | 4.8 | 0.00 | 0.00 | 0.00 | 70 | 1013.3 |
| 20260502110717 | 1 | 360 | 3.2 | 4.8 | 0.00 | 0.00 | 0.00 | 70 | 1013.3 |
| 20260502110218 | 1 | 360 | 3.2 | 3.2 | 0.00 | 0.00 | 0.00 | 71 | 1013.4 |
| 20260502105503 | 1 | 360 | 3.2 | 4.8 | 0.00 | 0.00 | 0.00 | 73 | 1013.5 |
| 20260502105003 | 1 | 360 | 3.2 | 4.8 | 0.00 | 0.00 | 0.00 | 73 | 1013.5 |
| 20260502104717 | 1 | 360 | 3.2 | 4.8 | 0.00 | 0.00 | 0.00 | 72 | 1013.5 |
| 20260502104003 | 1 | 360 | 3.2 | 4.8 | 0.00 | 0.00 | 0.00 | 71 | 1013.6 |
| 20260502103719 | 1 | 360 | 3.2 | 4.8 | 0.00 | 0.00 | 0.00 | 70 | 1013.6 |
| 20260502103003 | 1 | 360 | 3.2 | 4.8 | 0.00 | 0.00 | 0.00 | 71 | 1013.7 |
| 20260502102503 | 1 | 360 | 1.6 | 4.8 | 0.00 | 0.00 | 0.00 | 71 | 1013.7 |
| 20260502102003 | 1 | 360 | 1.6 | 4.8 | 0.00 | 0.00 | 0.00 | 70 | 1013.8 |
| 20260502101719 | 1 | 360 | 1.6 | 3.2 | 0.00 | 0.00 | 0.00 | 70 | 1013.9 |
| 20260502101003 | 1 | 360 | 3.2 | 4.8 | 0.00 | 0.00 | 0.00 | 70 | 1013.8 |
| 20260502100503 | 1 | 360 | 1.6 | 4.8 | 0.00 | 0.00 | 0.00 | 71 | 1014.0 |
| 20260502091503 | 1 | 360 | 1.6 | 3.2 | 0.00 | 0.00 | 0.00 | 74 | 1014.4 |
| 20260502091003 | 1 | 360 | 0.0 | 1.6 | 0.00 | 0.00 | 0.00 | 75 | 1014.4 |
| 20260502090503 | 1 | 0 | 0.0 | 0.0 | 0.00 | 0.00 | 0.00 | 76 | 1014.4 |
| 20260502071503 | 0 | 0 | 0.0 | 0.0 | 0.00 | 0.00 | 0.00 | 74 | 1015.2 |
| 20260502071003 | 0 | 0 | 0.0 | 0.0 | 0.00 | 0.00 | 0.00 | 76 | 1015.1 |
| 20260502070503 | 0 | 0 | 0.0 | 0.0 | 0.00 | 0.00 | 0.00 | 76 | 1015.2 |
| 20260502070003 | 0 | 0 | 0.0 | 0.0 | 0.00 | 0.00 | 0.00 | 76 | 1015.2 |
| 20260502065503 | 0 | 0 | 0.0 | 0.0 | 0.00 | 0.00 | 0.00 | 77 | 1015.2 |
| 20260502065003 | 0 | 0 | 0.0 | 0.0 | 0.00 | 0.00 | 0.00 | 77 | 1015.3 |
| 20260502064503 | 0 | 0 | 0.0 | 0.0 | 0.00 | 0.00 | 0.00 | 76 | 1015.3 |
| 20260502064003 | 0 | 0 | 0.0 | 0.0 | 0.00 | 0.00 | 0.00 | 76 | 1015.2 |
| 20260502063503 | 0 | 0 | 0.0 | 0.0 | 0.00 | 0.00 | 0.00 | 76 | 1015.2 |
| 20260502063219 | 0 | 0 | 0.0 | 0.0 | 0.00 | 0.00 | 0.00 | 75 | 1015.2 |
| 20260502062503 | 0 | 0 | 0.0 | 0.0 | 0.00 | 0.00 | 0.00 | 76 | 1015.3 |
| 20260502062003 | 0 | 0 | 0.0 | 0.0 | 0.00 | 0.00 | 0.00 | 77 | 1015.3 |
| 20260502061503 | 1 | 0 | 0.0 | 0.0 | 0.00 | 0.00 | 0.00 | 77 | 1015.3 |
| 20260502061003 | 1 | 0 | 0.0 | 0.0 | 0.00 | 0.00 | 0.00 | 77 | 1015.3 |
| 20260502060503 | 1 | 0 | 0.0 | 0.0 | 0.00 | 0.00 | 0.00 | 77 | 1015.3 |
| 20260502060003 | 1 | 0 | 0.0 | 0.0 | 0.00 | 0.00 | 0.00 | 76 | 1015.3 |
| 20260502055503 | 1 | 0 | 0.0 | 0.0 | 0.00 | 0.00 | 0.00 | 76 | 1015.3 |
| 20260502055003 | 1 | 0 | 0.0 | 0.0 | 0.00 | 0.00 | 0.00 | 75 | 1015.3 |
| 20260502054503 | 2 | 0 | 0.0 | 0.0 | 0.00 | 0.00 | 0.00 | 75 | 1015.4 |
| 20260502054216 | 2 | 0 | 0.0 | 0.0 | 0.00 | 0.00 | 0.00 | 75 | 1015.4 |
| 20260502053503 | 2 | 0 | 0.0 | 0.0 | 0.00 | 0.00 | 0.00 | 75 | 1015.4 |
| 20260502053003 | 2 | 0 | 0.0 | 0.0 | 0.00 | 0.00 | 0.00 | 74 | 1015.4 |
| 20260502052503 | 2 | 0 | 0.0 | 0.0 | 0.00 | 0.00 | 0.00 | 75 | 1015.4 |
| 20260502052003 | 2 | 0 | 0.0 | 0.0 | 0.00 | 0.00 | 0.00 | 76 | 1015.4 |
| 20260502051503 | 2 | 0 | 0.0 | 0.0 | 0.00 | 0.00 | 0.00 | 76 | 1015.5 |
| 20260502051003 | 3 | 0 | 0.0 | 0.0 | 0.00 | 0.00 | 0.00 | 76 | 1015.6 |
| 20260502050503 | 3 | 0 | 0.0 | 0.0 | 0.00 | 0.00 | 0.00 | 76 | 1015.5 |
| 20260502050003 | 3 | 0 | 0.0 | 0.0 | 0.00 | 0.00 | 0.00 | 76 | 1015.6 |
| 20260502045503 | 3 | 0 | 0.0 | 0.0 | 0.00 | 0.00 | 0.00 | 75 | 1015.6 |
| 20260502045003 | 3 | 0 | 0.0 | 0.0 | 0.00 | 0.00 | 0.00 | 75 | 1015.7 |
| 20260502044719 | 3 | 0 | 0.0 | 0.0 | 0.00 | 0.00 | 0.00 | 75 | 1015.7 |
| 20260502044216 | 3 | 0 | 0.0 | 0.0 | 0.00 | 0.00 | 0.00 | 75 | 1015.7 |
| 20260502043503 | 3 | 0 | 0.0 | 0.0 | 0.00 | 0.00 | 0.00 | 75 | 1015.8 |
| 20260502043003 | 3 | 0 | 0.0 | 0.0 | 0.00 | 0.00 | 0.00 | 74 | 1015.7 |
| 20260502042718 | 3 | 0 | 0.0 | 0.0 | 0.00 | 0.00 | 0.00 | 74 | 1015.8 |
| 20260502042003 | 4 | 0 | 0.0 | 0.0 | 0.00 | 0.00 | 0.00 | 73 | 1015.8 |
| 20260502041503 | 4 | 0 | 0.0 | 0.0 | 0.00 | 0.00 | 0.00 | 73 | 1015.8 |
| 20260502041003 | 4 | 0 | 0.0 | 0.0 | 0.00 | 0.00 | 0.00 | 72 | 1015.8 |
| 20260502040503 | 4 | 0 | 0.0 | 0.0 | 0.00 | 0.00 | 0.00 | 72 | 1015.8 |
| 20260502040215 | 4 | 0 | 0.0 | 0.0 | 0.00 | 0.00 | 0.00 | 71 | 1015.8 |
| 20260502035503 | 5 | 0 | 0.0 | 0.0 | 0.00 | 0.00 | 0.00 | 70 | 1015.8 |
| 20260502035003 | 5 | 0 | 0.0 | 0.0 | 0.00 | 0.00 | 0.00 | 69 | 1015.8 |
| 20260502034503 | 5 | 0 | 0.0 | 0.0 | 0.00 | 0.00 | 0.00 | 68 | 1015.8 |
| 20260502034003 | 5 | 0 | 0.0 | 0.0 | 0.00 | 0.00 | 0.00 | 68 | 1015.9 |
| 20260502033503 | 5 | 0 | 0.0 | 0.0 | 0.00 | 0.00 | 0.00 | 67 | 1015.8 |
| 20260502033003 | 5 | 0 | 0.0 | 0.0 | 0.00 | 0.00 | 0.00 | 64 | 1015.9 |
| 20260502032503 | 5 | 0 | 0.0 | 0.0 | 0.00 | 0.00 | 0.00 | 63 | 1015.8 |
| 20260502032003 | 6 | 0 | 0.0 | 0.0 | 0.00 | 0.00 | 0.00 | 63 | 1015.8 |
| 20260502031503 | 6 | 0 | 0.0 | 0.0 | 0.00 | 0.00 | 0.00 | 58 | 1015.9 |
| 20260502031003 | 6 | 0 | 0.0 | 0.0 | 0.00 | 0.00 | 0.00 | 57 | 1015.8 |
| 20260502030503 | 6 | 0 | 0.0 | 0.0 | 0.00 | 0.00 | 0.00 | 52 | 1015.9 |
| 20260502030003 | 6 | 0 | 0.0 | 0.0 | 0.00 | 0.00 | 0.00 | 49 | 1015.9 |
| 20260502025503 | 7 | 0 | 0.0 | 0.0 | 0.00 | 0.00 | 0.00 | 49 | 1015.8 |
| 20260502025217 | 7 | 0 | 0.0 | 0.0 | 0.00 | 0.00 | 0.00 | 48 | 1015.8 |
| 20260502024503 | 7 | 0 | 0.0 | 0.0 | 0.00 | 0.00 | 0.00 | 47 | 1015.9 |
| 20260502024003 | 7 | 0 | 0.0 | 0.0 | 0.00 | 0.00 | 0.00 | 49 | 1015.9 |
| 20260502023503 | 7 | 0 | 0.0 | 0.0 | 0.00 | 0.00 | 0.00 | 45 | 1015.9 |
| 20260502023003 | 7 | 0 | 0.0 | 0.0 | 0.00 | 0.00 | 0.00 | 45 | 1015.9 |
| 20260502022503 | 7 | 0 | 0.0 | 0.0 | 0.00 | 0.00 | 0.00 | 45 | 1015.8 |
| 20260502022003 | 8 | 0 | 0.0 | 0.0 | 0.00 | 0.00 | 0.00 | 44 | 1015.9 |
| 20260502021503 | 8 | 360 | 0.0 | 1.6 | 0.00 | 0.00 | 0.00 | 43 | 1015.9 |
| 20260502021003 | 8 | 360 | 1.6 | 3.2 | 0.00 | 0.00 | 0.00 | 44 | 1015.8 |
| 20260502020503 | 8 | 360 | 1.6 | 3.2 | 0.00 | 0.00 | 0.00 | 43 | 1015.8 |
| 20260502020003 | 8 | 360 | 1.6 | 4.8 | 0.00 | 0.00 | 0.00 | 42 | 1015.7 |
| 20260502015503 | 8 | 360 | 3.2 | 4.8 | 0.00 | 0.00 | 0.00 | 43 | 1015.8 |
| 20260502015003 | 8 | 360 | 3.2 | 4.8 | 0.00 | 0.00 | 0.00 | 44 | 1015.7 |
| 20260502014503 | 8 | 360 | 3.2 | 4.8 | 0.00 | 0.00 | 0.00 | 44 | 1015.7 |
| 20260502014003 | 8 | 360 | 3.2 | 6.4 | 0.00 | 0.00 | 0.00 | 45 | 1015.7 |
| 20260502013503 | 8 | 360 | 4.8 | 8.0 | 0.00 | 0.00 | 0.00 | 49 | 1015.7 |
| 20260502013003 | 9 | 360 | 6.4 | 8.0 | 0.00 | 0.00 | 0.00 | 52 | 1015.6 |
| 20260502012503 | 9 | 355 | 4.8 | 9.7 | 0.00 | 0.00 | 0.00 | 51 | 1015.6 |
| 20260502012003 | 9 | 304 | 6.4 | 11.3 | 0.00 | 0.00 | 0.00 | 51 | 1015.6 |
| 20260502011503 | 10 | 292 | 8.0 | 12.9 | 0.00 | 0.00 | 0.00 | 49 | 1015.6 |
| 20260502011003 | 10 | 309 | 8.0 | 12.9 | 0.00 | 0.00 | 0.00 | 46 | 1015.6 |
| 20260502010503 | 10 | 294 | 11.3 | 17.7 | 0.00 | 0.00 | 0.00 | 47 | 1015.5 |
| 20260502010003 | 10 | 287 | 12.9 | 17.7 | 0.00 | 0.00 | 0.00 | 47 | 1015.5 |
| 20260502005503 | 10 | 287 | 9.7 | 14.5 | 0.00 | 0.00 | 0.00 | 47 | 1015.6 |
| 20260502005003 | 10 | 278 | 9.7 | 14.5 | 0.00 | 0.00 | 0.00 | 48 | 1015.6 |
| 20260502004503 | 10 | 268 | 9.7 | 14.5 | 0.00 | 0.00 | 0.00 | 47 | 1015.6 |
| 20260502004003 | 10 | 268 | 11.3 | 16.1 | 0.00 | 0.00 | 0.00 | 47 | 1015.6 |
| 20260502003719 | 10 | 268 | 12.9 | 17.7 | 0.00 | 0.00 | 0.00 | 47 | 1015.6 |
| 20260502003003 | 10 | 276 | 12.9 | 17.7 | 0.00 | 0.00 | 0.00 | 46 | 1015.6 |
| 20260502002503 | 10 | 287 | 12.9 | 19.3 | 0.00 | 0.00 | 0.00 | 45 | 1015.6 |
| 20260502002003 | 10 | 288 | 16.1 | 20.9 | 0.00 | 0.00 | 0.00 | 45 | 1015.6 |
| 20260502001503 | 10 | 288 | 16.1 | 20.9 | 0.00 | 0.00 | 0.00 | 44 | 1015.5 |
| 20260502001003 | 10 | 286 | 14.5 | 17.7 | 0.00 | 0.00 | 0.00 | 48 | 1015.4 |
| 20260502000503 | 10 | 274 | 14.5 | 19.3 | 0.00 | 0.00 | 0.00 | 48 | 1015.4 |
| 20260502000003 | 10 | 269 | 12.9 | 19.3 | 0.00 | 0.00 | 0.00 | 48 | 1015.5 |
| 20260501235503 | 11 | 266 | 9.7 | 17.7 | 0.00 | 0.00 | 0.00 | 43 | 1015.5 |
| 20260501235003 | 11 | 257 | 8.0 | 17.7 | 0.00 | 0.00 | 0.00 | 43 | 1015.5 |
| 20260501234503 | 11 | 262 | 9.7 | 14.5 | 0.00 | 0.00 | 0.00 | 38 | 1015.6 |
| 20260501234218 | 11 | 263 | 8.0 | 14.5 | 0.00 | 0.00 | 0.00 | 44 | 1015.6 |
| 20260501233503 | 11 | 284 | 8.0 | 12.9 | 0.00 | 0.00 | 0.00 | 44 | 1015.6 |
| 20260501233003 | 11 | 288 | 8.0 | 12.9 | 0.00 | 0.00 | 0.00 | 42 | 1015.7 |
| 20260501232503 | 11 | 297 | 6.4 | 16.1 | 0.00 | 0.00 | 0.00 | 39 | 1015.7 |
| 20260501232003 | 12 | 298 | 4.8 | 16.1 | 0.00 | 0.00 | 0.00 | 36 | 1015.6 |
| 20260501231503 | 12 | 283 | 3.2 | 6.4 | 0.00 | 0.00 | 0.00 | 34 | 1015.6 |
| 20260501231003 | 12 | 298 | 4.8 | 16.1 | 0.00 | 0.00 | 0.00 | 35 | 1015.6 |
| 20260501230503 | 12 | 309 | 4.8 | 16.1 | 0.00 | 0.00 | 0.00 | 34 | 1015.6 |
| 20260501230003 | 12 | 323 | 4.8 | 14.5 | 0.00 | 0.00 | 0.00 | 34 | 1015.6 |
| 20260501225503 | 12 | 320 | 4.8 | 14.5 | 0.00 | 0.00 | 0.00 | 39 | 1015.6 |
| 20260501225003 | 11 | 317 | 4.8 | 12.9 | 0.00 | 0.00 | 0.00 | 41 | 1015.6 |
| 20260501224503 | 11 | 321 | 4.8 | 12.9 | 0.00 | 0.00 | 0.00 | 38 | 1015.6 |
| 20260501224003 | 11 | 321 | 8.0 | 14.5 | 0.00 | 0.00 | 0.00 | 38 | 1015.7 |
| 20260501223503 | 11 | 318 | 9.7 | 20.9 | 0.00 | 0.00 | 0.00 | 41 | 1015.7 |
| 20260501223215 | 11 | 313 | 11.3 | 20.9 | 0.00 | 0.00 | 0.00 | 40 | 1015.6 |
| 20260501222503 | 11 | 293 | 9.7 | 20.9 | 0.00 | 0.00 | 0.00 | 38 | 1015.6 |
| 20260501222003 | 11 | 282 | 4.8 | 20.9 | 0.00 | 0.00 | 0.00 | 36 | 1015.6 |
| 20260501221503 | 11 | 282 | 4.8 | 11.3 | 0.00 | 0.00 | 0.00 | 41 | 1015.6 |
| 20260501221003 | 11 | 283 | 8.0 | 14.5 | 0.00 | 0.00 | 0.00 | 41 | 1015.7 |
| 20260501220503 | 10 | 271 | 11.3 | 17.7 | 0.00 | 0.00 | 0.00 | 40 | 1015.8 |
| 20260501220003 | 10 | 267 | 12.9 | 19.3 | 0.00 | 0.00 | 0.00 | 42 | 1015.7 |
| 20260501215503 | 10 | 276 | 12.9 | 19.3 | 0.00 | 0.00 | 0.00 | 42 | 1015.8 |
| 20260501215003 | 10 | 291 | 9.7 | 16.1 | 0.00 | 0.00 | 0.00 | 40 | 1015.9 |
| 20260501214503 | 11 | 301 | 11.3 | 20.9 | 0.00 | 0.00 | 0.00 | 46 | 1015.9 |
| 20260501214217 | 11 | 303 | 11.3 | 20.9 | 0.00 | 0.00 | 0.00 | 39 | 1015.9 |
| 20260501213503 | 11 | 305 | 6.4 | 20.9 | 0.00 | 0.00 | 0.00 | 38 | 1015.9 |
| 20260501213003 | 12 | 330 | 4.8 | 17.7 | 0.00 | 0.00 | 0.00 | 37 | 1016.0 |
| 20260501212503 | 12 | 303 | 9.7 | 17.7 | 0.00 | 0.00 | 0.00 | 36 | 1015.9 |
| 20260501212003 | 11 | 291 | 8.0 | 17.7 | 0.00 | 0.00 | 0.00 | 41 | 1016.0 |
| 20260501211503 | 12 | 286 | 3.2 | 12.9 | 0.00 | 0.00 | 0.00 | 34 | 1016.0 |
| 20260501211003 | 11 | 259 | 1.6 | 9.7 | 0.00 | 0.00 | 0.00 | 39 | 1016.1 |
| 20260501210503 | 10 | 272 | 3.2 | 9.7 | 0.00 | 0.00 | 0.00 | 38 | 1016.2 |
| 20260501210217 | 10 | 286 | 4.8 | 9.7 | 0.00 | 0.00 | 0.00 | 40 | 1016.2 |
| 20260501205718 | 10 | 320 | 4.8 | 9.7 | 0.00 | 0.00 | 0.00 | 42 | 1016.3 |
| 20260501205003 | 10 | 310 | 4.8 | 12.9 | 0.00 | 0.00 | 0.00 | 41 | 1016.4 |
| 20260501204503 | 10 | 296 | 4.8 | 12.9 | 0.00 | 0.00 | 0.00 | 37 | 1016.4 |
| 20260501204003 | 10 | 313 | 4.8 | 11.3 | 0.00 | 0.00 | 0.00 | 40 | 1016.4 |
| 20260501203718 | 10 | 336 | 4.8 | 16.1 | 0.00 | 0.00 | 0.00 | 41 | 1016.4 |
| 20260501203003 | 8 | 319 | 6.4 | 16.1 | 0.00 | 0.00 | 0.00 | 46 | 1016.5 |
| 20260501202716 | 8 | 284 | 8.0 | 16.1 | 0.00 | 0.00 | 0.00 | 53 | 1016.4 |
| 20260501202003 | 10 | 269 | 11.3 | 22.5 | 0.00 | 0.00 | 0.00 | 49 | 1016.4 |
| 20260501201503 | 10 | 247 | 11.3 | 22.5 | 0.00 | 0.00 | 0.00 | 39 | 1016.4 |
| 20260501201003 | 10 | 231 | 9.7 | 19.3 | 0.00 | 0.00 | 0.00 | 40 | 1016.4 |
| 20260501200715 | 10 | 239 | 9.7 | 19.3 | 0.00 | 0.00 | 0.00 | 40 | 1016.3 |
| 20260501200003 | 10 | 267 | 6.4 | 14.5 | 0.00 | 0.00 | 0.00 | 45 | 1016.5 |
| 20260501195503 | 10 | 280 | 6.4 | 12.9 | 0.00 | 0.00 | 0.00 | 37 | 1016.6 |
| 20260501195003 | 10 | 287 | 4.8 | 12.9 | 0.00 | 0.00 | 0.00 | 37 | 1016.6 |
| 20260501194503 | 10 | 293 | 6.4 | 19.3 | 0.00 | 0.00 | 0.00 | 40 | 1016.6 |
| 20260501194003 | 9 | 298 | 9.7 | 19.3 | 0.00 | 0.00 | 0.00 | 38 | 1016.6 |
| 20260501193503 | 10 | 316 | 6.4 | 16.1 | 0.00 | 0.00 | 0.00 | 35 | 1016.6 |
| 20260501193003 | 11 | 313 | 3.2 | 8.0 | 0.00 | 0.00 | 0.00 | 40 | 1016.7 |
| 20260501192503 | 10 | 295 | 3.2 | 8.0 | 0.00 | 0.00 | 0.00 | 36 | 1016.7 |
| 20260501192003 | 10 | 295 | 4.8 | 14.5 | 0.00 | 0.00 | 0.00 | 35 | 1016.7 |
| 20260501191717 | 10 | 290 | 4.8 | 14.5 | 0.00 | 0.00 | 0.00 | 36 | 1016.7 |
| 20260501191003 | 10 | 247 | 3.2 | 11.3 | 0.00 | 0.00 | 0.00 | 36 | 1016.7 |
| 20260501190503 | 11 | 280 | 1.6 | 6.4 | 0.00 | 0.00 | 0.00 | 37 | 1016.8 |